sat.trackr.live / text

‹ back to catalog

STARLINK-34098

NORAD 64080 · 2025-107S

PAYLOAD ACTIVE UNKNOWN

§ Identity

Operator
Country
US
Launch date
2025-05-21
Launch site
AFETR
Launch vehicle
Mass (kg)
RCS (m²)

Purposes: comms

External: N2YO · Heavens-Above · Gunter

§ Orbital elements

Epoch: 2026-09-20T03:43:31.891008Z

Period
94.27 min
Inclination
42.9997°
Eccentricity
0.0001070
Mean motion
15.27588536 rev/d
Perigee alt
482.3 km
Apogee alt
483.8 km
Semi-major
6,861.2 km
B*
3.3069e-4
RAAN
183.1168°
Arg perigee
269.1655°
Mean anomaly
90.9074°
Rev number
7,586

§ Raw data

STARLINK-340981 64080U 25107S   26263.15523022  .00008851  00000+0  33069-3 0  99972 64080  42.9997 183.1168 0001070 269.1655  90.9074 15.27588536 75865

JSON: /api/v1/satellites/64080 · /tle

For live sub-satellite position, see the globe view (requires WebGL).

§ Visibility from observer

Set your observer location to see the next 7 days of passes ≥ 10°. The values pass through the URL so the page stays shareable.

No JS? Fill the form by hand. The geolocation button needs JavaScript.